Weather History for Wrangell, AK

Change the Weather History Date:

Sunday, March 10, 2013

  Actual Average Record
Temperature  
Mean Temperature 35 °F -  
Max Temperature 37 °F 42 °F 50 °F (1970)
Min Temperature 33 °F 29 °F 12 °F (1951)
Degree Days  
Heating Degree Days 30    
Moisture  
Dew Point 30 °F    
Average Humidity 78    
Maximum Humidity 87    
Minimum Humidity 70    
Precipitation  
Precipitation 0.13 in - - ()
Sea Level Pressure  
Sea Level Pressure 30.38 in    
Wind  
Wind Speed 5 mph (SSE)    
Max Wind Speed 12 mph    
Max Gust Speed -    
Visibility 10 miles    
Events      
Averages and records for this station are not official NWS values.
T = Trace of Precipitation, MM = Missing Value Source: NWS Daily Summary

Daily Weather History Graph

Daily Weather History Graph

Search for Another Location

Airport:

Trip Planner

Search our weather history database for the weather conditions in past years. The results will help you decide how hot, cold, wet, or windy it might be!

Date:

Astronomy

Mar. 10, 2013 Rise Set
Actual Time 7:17 AM AKDT 6:43 PM AKDT
Civil Twilight 6:39 AM AKDT 7:20 PM AKDT
Nautical Twilight 5:55 AM AKDT 8:04 PM AKDT
Astronomical Twilight 5:10 AM AKDT 8:50 PM AKDT
Moon 6:27 AM AKDT (3/10) 5:58 PM AKDT (3/10)
Length of Visible Light 12h 41m
Length of Day
11h 26m
Waning Crescent, 1% of the Moon is Illuminated
Mar 10
Waning Crescent
Mar 11
New
Mar 19
First Quarter
Mar 27
Full
Apr 2
Last Quarter

Hourly Weather History & Observations

Time (AKDT) Temp. Windchill Dew Point Humidity Pressure Visibility Wind Dir Wind Speed Gust Speed Precip Events Conditions
12:16 AM 37.4 °F 32.1 °F 28.4 °F 70% 30.31 in 10.0 mi SSW 6.9 mph - N/A   Overcast
12:36 AM 35.6 °F 31.7 °F 28.4 °F 75% 30.32 in 10.0 mi SW 4.6 mph - N/A   Overcast
12:56 AM 37.4 °F 31.4 °F 28.4 °F 70% 30.32 in 10.0 mi SW 8.1 mph - N/A   Overcast
1:16 AM 37.4 °F 31.4 °F 28.4 °F 70% 30.33 in 10.0 mi SSW 8.1 mph - N/A   Overcast
1:36 AM 37.4 °F 32.1 °F 28.4 °F 70% 30.34 in 10.0 mi SSW 6.9 mph - N/A   Overcast
1:56 AM 37.4 °F 32.1 °F 28.4 °F 70% 30.34 in 10.0 mi South 6.9 mph - N/A   Overcast
3:16 AM 35.6 °F 30.7 °F 28.4 °F 75% 30.35 in 10.0 mi SW 5.8 mph - N/A   Overcast
3:56 AM 37.4 °F 32.1 °F 28.4 °F 70% 30.35 in 10.0 mi South 6.9 mph - N/A   Overcast
4:36 AM 37.4 °F 33.8 °F 28.4 °F 70% 30.35 in 10.0 mi SSE 4.6 mph - N/A   Overcast
4:56 AM 37.4 °F 33.8 °F 28.4 °F 70% 30.36 in 10.0 mi South 4.6 mph - N/A   Overcast
5:16 AM 35.6 °F 29.2 °F 28.4 °F 75% 30.36 in 10.0 mi SSW 8.1 mph - N/A   Mostly Cloudy
5:36 AM 37.4 °F 31.4 °F 28.4 °F 70% 30.36 in 10.0 mi SSW 8.1 mph - N/A   Overcast
5:56 AM 35.6 °F - 28.4 °F 75% 30.37 in 10.0 mi Calm Calm - N/A   Overcast
6:16 AM 35.6 °F 31.7 °F 28.4 °F 75% 30.37 in 10.0 mi East 4.6 mph - N/A   Overcast
6:36 AM 35.6 °F - 28.4 °F 75% 30.37 in 10.0 mi Calm Calm - N/A   Overcast
6:56 AM 35.6 °F - 28.4 °F 75% 30.37 in 10.0 mi Calm Calm - N/A   Overcast
7:16 AM 35.6 °F - 28.4 °F 75% 30.37 in 10.0 mi Calm Calm - N/A   Overcast
7:36 AM 35.6 °F - 28.4 °F 75% 30.38 in 10.0 mi Calm Calm - 0.01 in   Overcast
7:56 AM 33.8 °F - 28.4 °F 81% 30.38 in 7.0 mi Calm Calm - 0.02 in   Overcast
8:16 AM 33.8 °F - 28.4 °F 81% 30.38 in 7.0 mi Calm Calm - 0.01 in   Overcast
8:36 AM 33.8 °F 30.8 °F 28.4 °F 81% 30.38 in 7.0 mi SSE 3.5 mph - 0.01 in   Overcast
8:56 AM 33.8 °F - 28.4 °F 81% 30.38 in 10.0 mi Calm Calm - 0.02 in   Mostly Cloudy
9:16 AM 35.6 °F - 28.4 °F 75% 30.39 in 10.0 mi Calm Calm - N/A   Mostly Cloudy
9:36 AM 35.6 °F 32.8 °F 30.2 °F 81% 30.39 in 10.0 mi ESE 3.5 mph - N/A   Mostly Cloudy
9:56 AM 35.6 °F - 30.2 °F 81% 30.39 in 10.0 mi Calm Calm - N/A   Mostly Cloudy
10:16 AM 35.6 °F - 30.2 °F 81% 30.39 in 10.0 mi Calm Calm - N/A   Mostly Cloudy
10:36 AM 37.4 °F - 30.2 °F 75% 30.39 in 10.0 mi Calm Calm - N/A   Mostly Cloudy
10:56 AM 37.4 °F 29.8 °F 33.8 °F 87% 30.39 in 10.0 mi East 11.5 mph - N/A   Mostly Cloudy
11:16 AM 37.4 °F 30.8 °F 32.0 °F 81% 30.40 in 10.0 mi East 9.2 mph - N/A   Mostly Cloudy
11:36 AM 37.4 °F 30.8 °F 32.0 °F 81% 30.40 in 10.0 mi East 9.2 mph - N/A   Mostly Cloudy
11:56 AM 37.4 °F 30.8 °F 30.2 °F 75% 30.40 in 10.0 mi East 9.2 mph - N/A   Mostly Cloudy
12:16 PM 37.4 °F 31.4 °F 32.0 °F 81% 30.40 in 10.0 mi East 8.1 mph - N/A   Mostly Cloudy
12:36 PM 37.4 °F 31.4 °F 32.0 °F 81% 30.40 in 10.0 mi East 8.1 mph - N/A   Mostly Cloudy
12:56 PM 37.4 °F 31.4 °F 32.0 °F 81% 30.40 in 10.0 mi ESE 8.1 mph - N/A   Overcast
1:16 PM 37.4 °F - 32.0 °F 81% 30.40 in 10.0 mi Calm Calm - N/A   Overcast
1:36 PM 37.4 °F 33.8 °F 32.0 °F 81% 30.40 in 10.0 mi ENE 4.6 mph - N/A   Overcast
1:56 PM 37.4 °F 34.9 °F 30.2 °F 75% 30.40 in 10.0 mi East 3.5 mph - N/A   Overcast
2:16 PM 37.4 °F 34.9 °F 30.2 °F 75% 30.39 in 10.0 mi ESE 3.5 mph - N/A   Overcast
2:36 PM 37.4 °F 34.9 °F 30.2 °F 75% 30.39 in 10.0 mi ESE 3.5 mph - N/A   Overcast
2:56 PM 37.4 °F 32.8 °F 33.8 °F 87% 30.39 in 10.0 mi East 5.8 mph - N/A   Overcast
3:16 PM 37.4 °F 32.8 °F 32.0 °F 81% 30.39 in 10.0 mi ESE 5.8 mph - N/A   Overcast
3:36 PM 37.4 °F 30.8 °F 32.0 °F 81% 30.39 in 10.0 mi ESE 9.2 mph - N/A   Overcast
3:56 PM 37.4 °F 30.8 °F 32.0 °F 81% 30.39 in 10.0 mi East 9.2 mph - N/A   Overcast
4:16 PM 37.4 °F 30.3 °F 32.0 °F 81% 30.38 in 10.0 mi East 10.4 mph - N/A   Overcast
4:36 PM 37.4 °F 30.3 °F 32.0 °F 81% 30.38 in 10.0 mi East 10.4 mph - N/A   Overcast
4:56 PM 37.4 °F 30.3 °F 32.0 °F 81% 30.38 in 10.0 mi ESE 10.4 mph - N/A   Overcast
5:16 PM 37.4 °F - 32.0 °F 81% 30.38 in 10.0 mi Calm Calm - N/A   Overcast
5:36 PM 37.4 °F 32.8 °F 32.0 °F 81% 30.38 in 10.0 mi ESE 5.8 mph - 0.01 in   Overcast
5:56 PM 37.4 °F 32.8 °F 30.2 °F 75% 30.37 in 10.0 mi SE 5.8 mph - 0.01 in   Overcast
6:16 PM 37.4 °F - 30.2 °F 75% 30.37 in 10.0 mi Calm Calm - N/A   Overcast
6:36 PM 37.4 °F 34.9 °F 30.2 °F 75% 30.37 in 10.0 mi South 3.5 mph - N/A   Overcast
6:56 PM 37.4 °F 34.9 °F 30.2 °F 75% 30.37 in 10.0 mi WNW 3.5 mph - N/A   Overcast
7:16 PM 35.6 °F 30.7 °F 30.2 °F 81% 30.38 in 10.0 mi WSW 5.8 mph - 0.01 in   Overcast
7:36 PM 35.6 °F - 30.2 °F 81% 30.38 in 10.0 mi Calm Calm - 0.01 in   Overcast
7:56 PM 35.6 °F 32.8 °F 30.2 °F 81% 30.38 in 10.0 mi West 3.5 mph - 0.02 in   Overcast
8:16 PM 35.6 °F 32.8 °F 30.2 °F 81% 30.38 in 10.0 mi West 3.5 mph - N/A   Overcast
8:36 PM 35.6 °F 31.7 °F 30.2 °F 81% 30.38 in 10.0 mi WSW 4.6 mph - N/A   Overcast
8:56 PM 35.6 °F 32.8 °F 30.2 °F 81% 30.38 in 10.0 mi SW 3.5 mph - 0.01 in   Overcast
9:16 PM 35.6 °F - 30.2 °F 81% 30.38 in 10.0 mi Calm Calm - N/A   Overcast
9:36 PM 35.6 °F - 30.2 °F 81% 30.38 in 10.0 mi Calm Calm - N/A   Overcast
9:56 PM 35.6 °F 32.8 °F 30.2 °F 81% 30.38 in 10.0 mi SSW 3.5 mph - N/A   Overcast
10:16 PM 35.6 °F 32.8 °F 30.2 °F 81% 30.39 in 10.0 mi West 3.5 mph - N/A   Overcast
10:36 PM 35.6 °F 31.7 °F 30.2 °F 81% 30.39 in 10.0 mi WSW 4.6 mph - N/A   Overcast
10:56 PM 35.6 °F - 30.2 °F 81% 30.39 in 10.0 mi Calm Calm - 0.01 in   Overcast
11:16 PM 35.6 °F - 30.2 °F 81% 30.39 in 9.0 mi Calm Calm - 0.02 in   Overcast
11:36 PM 35.6 °F - 30.2 °F 81% 30.39 in 9.0 mi Calm Calm - 0.03 in   Overcast
11:56 PM 35.6 °F 32.8 °F 30.2 °F 81% 30.39 in 10.0 mi SSE 3.5 mph - 0.03 in   Overcast
12:16 AM 35.6 °F - 30.2 °F 81% 30.40 in 8.0 mi Calm Calm - N/A   Overcast
12:36 AM 35.6 °F - 30.2 °F 81% 30.40 in 10.0 mi Calm Calm - 0.01 in   Overcast
12:56 AM 35.6 °F - 32.0 °F 87% 30.40 in 10.0 mi Calm Calm - 0.01 in   Overcast